TimeMDT,TemperatureF,Dew PointF,Humidity,Sea Level PressureIn,VisibilityMPH,Wind Direction,Wind SpeedMPH,Gust SpeedMPH,PrecipitationIn,Events,Conditions,WindDirDegrees,DateUTC
12:53 AM,35.1,25.0,67,29.90,10.0,Calm,Calm,-,N/A,,Clear,0,2013-04-12 06:53:00
1:53 AM,30.0,25.0,82,29.90,10.0,SE,3.5,-,N/A,,Clear,130,2013-04-12 07:53:00
2:53 AM,28.9,25.0,85,29.90,10.0,NE,6.9,-,N/A,,Clear,50,2013-04-12 08:53:00
3:53 AM,28.9,24.1,82,29.90,10.0,ENE,3.5,-,N/A,,Clear,70,2013-04-12 09:53:00
4:53 AM,28.0,23.0,81,29.90,10.0,Calm,Calm,-,N/A,,Clear,0,2013-04-12 10:53:00
5:53 AM,25.0,21.9,88,29.93,10.0,East,3.5,-,N/A,,Clear,90,2013-04-12 11:53:00
6:53 AM,26.1,21.9,84,29.95,10.0,Calm,Calm,-,N/A,,Clear,0,2013-04-12 12:53:00
7:53 AM,32.0,25.0,75,29.96,10.0,Calm,Calm,-,N/A,,Clear,0,2013-04-12 13:53:00
8:53 AM,37.9,27.0,65,29.96,10.0,Calm,Calm,-,N/A,,Clear,0,2013-04-12 14:53:00
9:53 AM,43.0,27.0,53,29.95,10.0,Calm,Calm,-,N/A,,Clear,0,2013-04-12 15:53:00
10:53 AM,48.0,30.0,50,29.94,10.0,Calm,Calm,-,N/A,,Clear,0,2013-04-12 16:53:00
11:53 AM,51.1,27.0,39,29.92,10.0,Variable,6.9,-,N/A,,Clear,0,2013-04-12 17:53:00
12:53 PM,53.1,24.1,32,29.90,10.0,SE,4.6,-,N/A,,Clear,130,2013-04-12 18:53:00
1:53 PM,57.0,21.9,26,29.88,10.0,SW,10.4,20.7,N/A,,Scattered Clouds,230,2013-04-12 19:53:00
2:53 PM,59.0,21.9,24,29.86,10.0,Variable,4.6,20.7,N/A,,Overcast,0,2013-04-12 20:53:00
3:53 PM,60.1,21.0,22,29.82,10.0,West,13.8,21.9,N/A,,Clear,280,2013-04-12 21:53:00
4:53 PM,61.0,21.0,21,29.81,10.0,West,13.8,-,N/A,,Scattered Clouds,260,2013-04-12 22:53:00
5:53 PM,57.9,18.0,21,29.83,10.0,WSW,9.2,-,N/A,,Partly Cloudy,250,2013-04-12 23:53:00
6:53 PM,57.0,19.0,23,29.84,10.0,WSW,15.0,-,N/A,,Clear,250,2013-04-13 00:53:00
7:53 PM,53.1,19.0,26,29.85,10.0,West,9.2,-,N/A,,Scattered Clouds,260,2013-04-13 01:53:00
8:53 PM,48.0,21.0,34,29.88,10.0,WSW,5.8,-,N/A,,Clear,250,2013-04-13 02:53:00
9:53 PM,46.9,19.9,34,29.89,10.0,WNW,3.5,-,N/A,,Clear,300,2013-04-13 03:53:00
10:53 PM,42.1,21.0,43,29.90,10.0,NW,5.8,-,N/A,,Clear,320,2013-04-13 04:53:00
11:53 PM,37.0,23.0,57,29.92,10.0,North,9.2,-,N/A,,Clear,10,2013-04-13 05:53:00